EUTELSAT HOTBIRD 13G (54225 NORAD) Tracking and Keplerian Element Data

This shows tracking and keplerian element data for the satellite.

Feedback or suggestion? Click here.




ElementValue
Catalog54225
NameEUTELSAT HOTBIRD 13G
Epoch Orbit17
Epoch Day321.1
Epoch Year2022
RAAN317.291
Inclination23.285
Eccentricity0.7933993
Argument of Perigee183.808
Mean Anonmoly213.962
Mean Motion1.22910872
Decay Rate1.4E-07
L11 54225U 22146A 22321.10000000 .00000014 00000+0 00000+0 0 9997
L22 54225 23.2850 317.2910 7933993 183.8080 213.9620 1.22910872 177



Live tracking and technical data element details for EUTELSAT HOTBIRD 13G (NORAD 54225). EUTELSAT HOTBIRD 13G can be tracked NOW for your location showing map with azimuth and elevation plus other details from your city location.







IsCatalogInMostPopularTable: catalog: 54225, numindb: 7
Update: records affected: 1



GetName: 54225 EUTELSAT HOTBIRD 13G

Hit Count: updated at: Sun, 04 Dec 2022 21:52:24 GMT